Location: Newark
(50.5833°N, 5.7333°E)
Time: 13:44:10
(UTC+00:00)

N. Korean satellite - Visible Passes

Search period start: 23 September 2020 00:00
Search period end: 03 October 2020 00:00
Orbit: 455 x 503 km, 97.2° (Epoch: 22 September)

Date Brightness Start Highest point End Pass type
(mag) Time Alt. Az. Time Alt. Az. Time Alt. Az.
23 Sep 9.1 04:38:09 10° NE 04:41:21 27° E 04:44:30 10° SSE visible
24 Sep 9.9 04:12:56 10° NE 04:15:07 15° E 04:17:18 10° SE visible
26 Sep 8.2 04:53:15 10° NNE 04:56:44 40° E 05:00:08 10° S visible
27 Sep 9.5 04:27:41 10° NE 04:30:34 21° E 04:33:22 10° SE visible
28 Sep 10.2 04:02:57 10° ENE 04:04:16 12° E 04:05:34 10° ESE visible
30 Sep 8.8 04:42:40 10° NNE 04:45:55 30° E 04:49:07 10° SSE visible
01 Oct 9.8 04:17:19 10° NE 04:19:42 17° E 04:22:02 10° SE visible
02 Oct 10.7 17:39:12 10° WSW 17:40:29 11° W 17:41:45 10° WNW visible
